Back to catalog

GLOBALSTAR M057

AliveCommunicationsLEO
NORAD 25943·PAYLOAD·🇺🇸 United States

Launched Oct 18, 1999 from Baikonur Cosmodrome

Loading…

Next Passes (next 24 hours)

TLE

FreshSource: Space-Track

Epoch: Sep 14, 2026, 15:47 UTC

1 25943U 99058A   26257.65766489 -.00000046  00000-0  42739-3 0  9996
2 25943  51.9972 138.3947 0001850 233.8221 126.2457 12.24838661222620

Track GLOBALSTAR M057 in real time with AllMySat

Download on the App Store